Regional Weather Roundup
Issued by NWS Charleston, SC

Current Version | Previous Version | Graphics & Text | Print | Product List | Glossary On
Versions: 1 2 3 4 5 6 7 8 9 10 11 12 13 14 15 16 17 18 19 20 21 22 23 24 25 26 27 28 29 30 31 32 33 34 35 36 37 38 39 40 41 42 43 44 45 46 47 48 49 50
000
ASUS42 KCHS 260625
RWRCHS

REGIONAL WEATHER ROUNDUP
NATIONAL WEATHER SERVICE CHARLESTON SC
100 AM EST FRI DEC 26 2014

NOTE: "FAIR" INDICATES FEW OR NO CLOUDS BELOW 12,000 FEET WITH NO
SIGNIFICANT WEATHER AND/OR OBSTRUCTIONS TO VISIBILITY.

NOT ALL STATIONS ARE QUALITY CONTROLLED BY THE NATIONAL
WEATHER SERVICE. USE DATA WITH CAUTION...ESPECIALLY
DEWPOINT OBSERVATIONS.

SCZ027-030-031-034>040-042>050-260700-
...SOUTHEAST SOUTH CAROLINA...

CITY           SKY/WX    TMP DP  RH WIND       PRES   REMARKS
N CHARLESTON   CLEAR     40  39  97 CALM      30.25F
6HR MIN TEMP:  39; 6HR MAX TEMP:  50;

WATERFRONT PRK   N/A     48 N/A N/A N5          N/A
MOUNT PLEASANT FAIR      39  39 100 CALM      30.25F
PINOPOLIS      NOT AVBL
MONCKS CORNER  FAIR      41  39  93 CALM      30.25F FOG
SUMMERVILLE    FAIR      37  37 100 CALM      30.26S
BEAUFORT MCAS  CLEAR     41  39  93 NW3       30.25F
6HR MIN TEMP:  41; 6HR MAX TEMP:  48;

BEAUFORT ARPT  FAIR      43  43 100 CALM      30.25R
HILTON HEAD IS CLEAR     41  39  93 CALM      30.27S
WALTERBORO     CLEAR     36 N/A N/A N3        30.27R
ALLENDALE      FAIR      37  37 100 CALM      30.25F FOG

...SOUTHERN MIDLANDS AND PEE DEE...

CITY           SKY/WX    TMP DP  RH WIND       PRES   REMARKS
GEORGETOWN     NOT AVBL
KINGSTREE      NOT AVBL
ORANGEBURG     CLEAR     39  37  92 CALM      30.26S FOG
6HR MIN TEMP:  39; 6HR MAX TEMP:  50;

BARNWELL         N/A     34  34 100 CALM      30.26F
AIKEN          FAIR      34  34 100 CALM      30.29S
MANNING        FAIR      36 N/A N/A CALM      30.26S
COLUMBIA       CLEAR     35  32  88 W3        30.27R
6HR MIN TEMP:  35; 6HR MAX TEMP:  48;

SUMTER         PTCLDY    36  34  92 NW1       30.25R
6HR MIN TEMP:  36; 6HR MAX TEMP:  49;

FLORENCE       CLEAR     40  37  89 CALM      30.26S
6HR MIN TEMP:  39; 6HR MAX TEMP:  49;

MYRTLE BEACH   CLEAR     43  39  87 NW3       30.25F
N MYRTLE BEACH CLEAR     40  39  97 CALM      30.24F FOG
6HR MIN TEMP:  40; 6HR MAX TEMP:  47;


$$

GAZ063-065-086>088-099>101-113>116-118-119-134>141-150-260700-
...SOUTHEAST GEORGIA...

CITY           SKY/WX    TMP DP  RH WIND       PRES   REMARKS
SAVANNAH ARPT  PTCLDY    42  38  85 CALM      30.26F
6HR MIN TEMP:  39; 6HR MAX TEMP:  48;

HUNTER AAF     PTCLDY    39  39 100 NW1       30.23F
6HR MIN TEMP:  38; 6HR MAX TEMP:  47;

FORT STEWART   CLEAR     38  37  93 CALM      30.24F
6HR MIN TEMP:  38; 6HR MAX TEMP:  46;

STATESBORO     CLEAR     36  36 100 CALM      30.26S
SYLVANIA       CLEAR     37  37 100 CALM      30.26F
CLAXTON        FAIR      36  36 100 CALM      30.26S

...CSRA...CENTRAL AND FAR SOUTHEAST GEORGIA...

CITY           SKY/WX    TMP DP  RH WIND       PRES   REMARKS
THOMSON        PTCLDY    33  33 100 CALM      30.30S
AUGUSTA-BUSH   PTCLDY    33  32  96 CALM      30.26F FOG
6HR MIN TEMP:  31; 6HR MAX TEMP:  43;

AUGUSTA-DANIEL CLEAR     43  38  82 CALM      30.26S
SWAINSBORO     FAIR      36  36 100 CALM      30.27S
VIDALIA        CLEAR     37  37 100 CALM      30.26S
EASTMAN        FOG       35  35 100 CALM      30.29F VSB 3/4
HAZLEHURST     FAIR      41  41 100 CALM      30.25S
ALMA           FOG       38  37  97 CALM      30.25S VSB 1
6HR MIN TEMP:  37; 6HR MAX TEMP:  46;

WAYCROSS       CLEAR     42  40  96 CALM      30.25S
JESUP          FAIR      39  37  93 CALM      30.25F
BAXLEY         FAIR      41  41 100 CALM      30.25S
BRUNSWICK      PTCLDY    41  37  87 CALM      30.26F
SAINT SIMONS   PTCLDY    43  40  89 CALM      30.26S
6HR MIN TEMP:  43; 6HR MAX TEMP:  52;


$$

SCZ027-028-034-036>038-045-046-048>050-GAZ119-141-260700-
...LAKE AND SUPPLEMENTAL COASTAL OBSERVATIONS...

STATION/POSITION TIME  TEMP    WIND        PRES    WAVE   SWELL
                       AIR SEA DIR/SP/G            HT/PER HT/PER/DIR
                 (UTC) (F)     (DEG/KT/KT) (MB)    (FT/S) (FT/S/D)
UPR LAKE MARION  NOT AVBL
WINYAH BAY       0600   45     320/  6     1023.0S
LAKE MURRAY      0500   42        CALM     1024.0S
ACE BASIN NERRS  NOT AVBL
FORT PULASKI     0600   47 56  330/  3/  4 1024.7F
SAPELO ISLAND    0600   41      10/  2     1024.0S

$$

ANZ835-935-AMZ111-154-330-350-352-354-370-450-454-472-260700-
...C-MAN AND BUOY OBSERVATIONS...

STATION/POSITION TIME  TEMP    WIND        PRES    WAVE   SWELL
                       AIR SEA DIR/SP/G            HT/PER HT/PER/DIR
                 (UTC) (F)     (DEG/KT/KT) (MB)    (FT/S) (FT/S/D)
BUOY 41004       0600   59 71   20/ 10/ 12 1023.8F   3/ 7   2/ 7
BUOY 41008       0600   56 58   20/ 10/ 10 1024.2F   1/10   2/120/10
FOLLY BEACH CMAN 0600   47     310/  3/  3 1024.7F
CAPERS NEARSHORE 0500   52     340/  8/ 10   N/A
FRIPP NEARSHORE  NOT AVBL


STATION/POSITION TIME  TEMP    WIND        PRES    WAVE   SWELL
                       AIR SEA DIR/SP/G            HT/PER HT/PER/DIR
                 (UTC) (F)     (DEG/KT/KT) (MB)    (FT/S) (FT/S/D)
5E ST. MARYS GA  0600      61                N/A     2/11
FRYING PAN BUOY  0600   58 70   10/ 10/ 14 1024.3F   3/ 6   3/190/ 6
BUOY 41025       0600   55                 1024.0R   5/ 8
CAPE LOOKOUT NC  0600   51      10/  8/ 10 1024.1F
BUOY 41002       0517   68 74  360/ 10/ 14 1022.8R   7/ 8   7/240/ 8
BUOY 41010       0600   69 76   20/ 10/ 14 1022.5R   5/ 7   5/340/ 7
ST AUGUSTINE FL  0600   52     350/  3/  5 1024.6F


$$



USA.gov is the U.S. government's official web portal to all federal, state and local government web resources and services.